#timestamp,LO_Frequency,Hit 
1497308415.1,286047004.0,N
1497308435.9,286047005.8,N
1497308455.7,286047000.2,N
1497308475.6,286047000.2,N
1497308495.4,286047002.8,N
1497308515.2,286047000.4,N
1497308535.1,286047000.0,N
1497308536.0,286047000.0,N
1497308555.8,286046999.7,N
1497308575.6,286047002.5,N
1497308595.5,286047000.1,N
1497308615.3,286046999.8,N
1497308635.2,286047002.6,N
1497308655.9,286047002.6,N
1497308675.7,286047001.5,N
1497308695.6,286047001.5,N
1497308715.4,286047002.7,N
1497308735.2,286046999.8,N
1497308755.1,286047002.3,N
1497308756.0,286047002.3,N
1497308775.8,286047004.4,N
1497308795.7,286047002.1,N
1497308815.5,286047004.4,N
1497308835.3,286047001.4,N
1497308855.2,286047003.0,N
1497308875.0,286047004.4,N
1497308875.9,286047004.4,N
1497308895.8,286047002.6,N
1497308915.6,286047002.7,N
1497308935.4,286047003.9,N
1497308955.3,286047003.4,N
1497308975.1,286047003.6,N
1497308995.8,286047003.4,N
1497309015.7,286047004.1,N
1497309035.5,286047001.5,N
1497309055.3,286047001.8,N
1497309075.2,286047004.2,N
1497309095.0,286047003.9,N
1497309095.9,286047003.9,N
1497309115.8,286047003.5,N
1497309135.6,286047003.2,N
1497309155.4,286047005.8,N
1497309175.3,286047006.0,N
1497309195.1,286047004.4,N
1497309215.8,286047003.1,N
1497309235.7,286047004.1,N
1497309255.5,286047001.6,N
1497309275.4,286047004.4,N
1497309295.2,286047004.0,N
1497309315.0,286047004.0,N
1497309315.9,286047004.0,N
1497309335.8,286047003.9,N
1497309355.6,286047003.9,N
1497309375.4,286047002.0,N
1497309395.3,286047001.3,N
1497309415.1,286047003.2,N
1497309435.9,286047001.4,N
1497309455.7,286047004.7,N
1497309475.5,286047007.6,N
1497309495.4,286047005.4,N
1497309515.2,286047003.0,N
1497309535.0,286047003.7,N
1497309535.9,286047003.7,N
1497309555.8,286047003.7,N
1497309575.6,286047004.2,N
1497309595.5,286047004.4,N
1497309615.3,286047003.8,N
1497309635.1,286047005.5,N
1497309655.9,286047005.2,N
1497309675.7,286047005.7,N
1497309695.5,286047004.8,N
1497309715.4,286047007.2,N
1497309735.2,286047005.1,N
1497309755.1,286047003.3,N
1497309756.0,286047003.3,N
1497309775.8,286047005.8,N
1497309795.6,286047003.9,N
1497309815.5,286047003.5,N
1497309835.3,286047003.4,N
1497309855.1,286047005.7,N
1497309875.9,286047003.1,N
1497309895.7,286047005.4,N
1497309915.6,286047003.2,N
1497309935.4,286047003.9,N
1497309955.2,286047006.0,N
1497309975.1,286047003.0,N
1497309976.0,286047003.0,N
1497309995.8,286047003.6,N
1497310015.6,286047003.2,N
1497310035.5,286047003.2,N
1497310055.3,286047004.0,N
1497310075.2,286047002.9,N
1497310095.9,286047003.4,N
1497310115.7,286047005.9,N
1497310135.6,286047004.8,N
1497310155.4,286047006.0,N
1497310175.2,286047003.0,N
1497310195.1,286047004.0,N
1497310196.0,286047004.0,N
1497310215.8,286047006.0,N
1497310235.7,286047007.3,Y
1497310255.5,286047003.5,N
1497310275.3,286047004.1,N
1497310295.2,286047001.4,N
1497310315.0,286047003.4,N
1497310315.9,286047003.4,N
1497310335.7,286047003.1,N
1497310355.6,286047003.9,N
1497310375.4,286047001.8,N
1497310395.3,286047001.7,N
1497310415.1,286047001.3,N
1497310416.0,286047001.3,N
1497310435.8,286047001.3,N
1497310455.7,286047001.3,N
1497310475.5,286047003.8,N
1497310495.3,286047003.6,N
1497310515.2,286047001.3,N
1497310535.0,286047006.0,Y
1497310535.9,286047006.0,Y
1497310555.8,286047000.0,N
1497310575.6,286047001.1,N
1497310595.4,286046998.8,N
1497310615.3,286047001.2,N
1497310635.1,286047003.9,N
1497310655.9,286047001.3,N
1497310675.7,286047000.5,N
1497310695.5,286046999.7,N
1497310715.4,286047000.2,N
1497310735.2,286047000.1,N
1497310755.0,286046999.9,N
1497310755.9,286046999.9,N
1497310775.8,286047000.7,N
1497310795.6,286047000.9,N
1497310815.5,286046999.7,N
1497310835.3,286047000.9,N
1497310855.1,286047001.1,N
1497310875.9,286047000.1,N
1497310895.7,286047000.5,N
1497310915.5,286047000.6,N
1497310935.4,286047002.1,N
1497310955.2,286047000.4,N
1497310975.1,286047000.6,N
1497310976.0,286047000.6,N
1497310995.8,286047001.0,N
1497311015.6,286047000.8,N
1497311035.5,286047000.6,N
1497311055.3,286046999.7,N
1497311075.1,286047001.9,N
1497311095.9,286047001.9,N
1497311115.7,286047002.6,N
1497311135.6,286047000.6,N
1497311155.4,286047002.7,N
1497311175.2,286047004.4,N
1497311195.1,286047000.4,N
1497311196.0,286047000.4,N
1497311215.8,286047000.1,N
1497311235.6,286047000.5,N
1497311255.5,286047000.9,N
1497311275.3,286046998.4,N
1497311295.2,286046998.9,N
1497311315.9,286046998.8,N
1497311335.7,286047000.4,N
1497311355.6,286047000.5,N
1497311375.4,286046999.0,N
1497311395.2,286046996.9,N
1497311415.1,286046999.0,N
1497311416.0,286046999.0,N
1497311435.8,286047000.9,N
1497311455.7,286046999.7,N
1497311475.5,286047001.3,N
1497311495.3,286047001.5,N
1497311515.2,286047000.0,N
1497311535.0,286047002.7,N
1497311535.9,286047002.7,N
1497311555.7,286046998.6,N
1497311575.6,286047001.0,N
1497311595.4,286047000.8,N
1497311615.3,286047000.3,N
1497311635.1,286047002.1,N
1497311636.0,286047002.1,N
1497311655.8,286047002.4,N
1497311675.7,286047000.0,N
1497311695.5,286047000.3,N
1497311715.3,286046999.7,N
1497311735.2,286047000.2,N
1497311755.0,286046999.7,N
1497311755.9,286046999.7,N
1497311775.8,286047000.4,N
1497311795.6,286047000.5,N
1497311815.4,286047000.8,N
1497311835.3,286047000.5,N
1497311855.1,286047000.4,N
1497311875.9,286046999.8,N
1497311895.7,286047002.8,N
1497311915.5,286047001.5,N
1497311935.4,286047001.4,N
1497311955.2,286047001.5,N
1497311975.0,286047002.0,N
1497311975.9,286047002.0,N
1497311995.8,286047002.7,N
